Regional Weather Roundup
Issued by NWS

Home | Current Version | Previous Version | Graphics & Text | Print | Product List | Glossary On
Versions: 1 2 3 4 5 6 7 8 9 10 11 12 13 14 15 16 17 18 19 20 21 22 23 24 25 26 27 28 29 30 31 32 33 34 35 36 37 38 39 40 41 42 43 44 45 46 47 48 49 50
000
ASUS43 KTOP 031259
RWRKS

WEATHER ROUNDUP FOR KANSAS
NATIONAL WEATHER SERVICE GOODLAND KS
800 AM CDT SUN MAY 03 2015

NOTE:  "FAIR" INDICATES FEW OR NO CLOUDS BELOW 12,000 FEET WITH NO
SIGNIFICANT WEATHER AND/OR OBSTRUCTIONS TO VISIBILITY.

KSZ001>006-013>018-027>032-041>047-031400-
NORTHWEST KANSAS

CITY           SKY/WX    TMP DP  RH WIND       PRES   REMARKS
GOODLAND       SUNNY     56  45  66 W10       29.86R
HAYS           MOSUNNY   63  48  59 W3        29.81R
HILL CITY      MOSUNNY   58  50  75 CALM      29.81R
RUSSELL        PTSUNNY   61  52  72 SW8       29.79R
$$

KSZ061>065-074>080-084>089-031400-
SOUTHWEST KANSAS

CITY           SKY/WX    TMP DP  RH WIND       PRES   REMARKS
DODGE CITY     PTSUNNY   57  48  72 S6        29.84R
ELKHART          N/A     55  44  66 SW7         N/A
GARDEN CITY    MOSUNNY   55  46  71 S3        29.84R
GREAT BEND     PTSUNNY   61  52  72 W3        29.82R
LIBERAL        PTSUNNY   59  45  58 W6        29.87R
$$

KSZ066>073-081>083-090>101-031400-
SOUTHEAST KANSAS

CITY           SKY/WX    TMP DP  RH WIND       PRES   REMARKS
CHANUTE        PTSUNNY   63  54  72 S13       29.92R
COFFEYVILLE    CLOUDY    63  54  72 S10       29.93R
HUTCHINSON     PTSUNNY   63  56  78 S12       29.82R
MEDICINE LODGE   N/A     62  56  80 CALM      29.85R
NEWTON         MOSUNNY   64  52  63 S18G25    29.85S
PARSONS        PTSUNNY   63  55  75 S8        29.94R
WICHITA INTL   PTSUNNY   65  54  67 S18       29.85R
WICHITA JABRA  MOSUNNY   65  54  67 S15G25    29.84S
WINFIELD       MOSUNNY   64  55  72 S14G22    29.88S
$$

KSZ007>012-019>026-033>040-048>060-102>105-031400-
NORTHEAST KANSAS

CITY           SKY/WX    TMP DP  RH WIND       PRES   REMARKS
CONCORDIA      SUNNY     65  54  67 SW15G23   29.77R
EMPORIA        MOSUNNY   62  54  74 S20       29.84S
LAWRENCE       CLOUDY    63  55  75 S7        29.87R
MANHATTAN      PTSUNNY   66  57  72 S10       29.80R
OLATHE IND     CLOUDY    62  53  72 S12       29.90R
OLATHE EXE     CLOUDY    62  53  72 S12       29.89R
SALINA         PTSUNNY   65  56  72 S16       29.80R
TOPEKA BILLARD PTSUNNY   64  56  75 S14       29.84S
TOPEKA FORBES  CLOUDY    64  55  72 S9        29.85R
$$



USA.gov is the U.S. government's official web portal to all federal, state and local government web resources and services.